Torna al catalogo

COSMOS 1275 DEB

AttivoPO
NORAD 39946·DEBRIS·🇷🇺 Russia

Lanciato Jun 4, 1981 da Plesetsk Cosmodrome

Loading…

Prossimi Passaggi (prossime 24 ore)

TLE

AggiornatoSource: Space-Track

Epoca: Sep 14, 2026, 07:35 UTC

1 39946U 81053NG  26257.31615396  .00000173  00000-0  14775-3 0  9992
2 39946  82.9500 109.1840 0035393   2.1985 357.9323 13.81315457938288

Traccia COSMOS 1275 DEB in tempo reale con AllMySat

Download on the App Store